Regional Weather Roundup
Issued by NWS

Home | Current Version | Previous Version | Graphics & Text | Print | Product List | Glossary On
Versions: 1 2 3 4 5 6 7 8 9 10 11 12 13 14 15 16 17 18 19 20 21 22 23 24 25 26 27
000
ASUS45 KBOU 181107
RWRCO

WEATHER ROUNDUP FOR COLORADO
NATIONAL WEATHER SERVICE DENVER/BOULDER CO
500 AM MDT WED OCT 18 2017

NOTE: "FAIR" INDICATES FEW OR NO CLOUDS BELOW 12000 FEET WITH NO
SIGNIFICANT WEATHER AND/OR OBSTRUCTIONS TO VISIBILITY.

COZ001>005-013-030-031-181200-
...NORTHWEST COLORADO...

CITY           SKY/WX    TMP DP  RH WIND       PRES   REMARKS
CRAIG          FAIR      22  16  78 SW3       30.24S
HAYDEN         FAIR      34  16  47 E12       30.26R WCI  25
MEEKER         FAIR      35  15  44 E5        30.25R WCI  31
RABBIT EARS PA FAIR      36   1  23 W10G20    30.37S
STEAMBOAT SPGS FAIR      29  16  57 CALM      30.26S
WALDEN         FAIR      34  10  37 SE9       30.27S WCI  26
$$

COZ006>008-011-181200-
...WEST CENTRAL VALLEYS...

CITY           SKY/WX    TMP DP  RH WIND       PRES   REMARKS
GRAND JUNCTION FAIR      41  15  35 S6        30.19S
MONTROSE       FAIR      34  15  46 SE6       30.26S WCI  29
EAGLE          FAIR      28  16  60 CALM      30.32R
RIFLE          FAIR      32  18  56 SE3       30.26R
DELTA          FAIR      36  14  39 E3        30.24S
NUCLA          FAIR      37   5  25 E5        30.29R
$$

COZ017>023-064>068-181200-
...SOUTHWEST COLORADO...

CITY           SKY/WX    TMP DP  RH WIND       PRES   REMARKS
DURANGO        FAIR      34  15  46 N5        30.27S WCI  30
CORTEZ         FAIR      29  16  58 CALM      30.25S
PAGOSA SPRINGS FAIR      32  15  49 CALM      30.32S
TELLURIDE      NOT AVBL
WOLF CREEK PAS NOT AVBL
$$

COZ009-010-012-014-032>034-037-058>063-181200-
...CENTRAL COLORADO...

CITY           SKY/WX    TMP DP  RH WIND       PRES   REMARKS
ASPEN          FAIR      30  14  51 SW9       30.30F WCI  22
BUENA VISTA    FAIR      32  14  46 W7        30.29S WCI  26
COPPER MTN     FAIR      37   1  22 NW3       30.48R HAZE
BERTHOUD PASS  FAIR      32  23  69 NW38G51   30.41F WCI  16
COTTONWOOD PAS FAIR      48  -8   9 NW9       30.36S
GUNNISON       FAIR      18  12  77 CALM      30.38S
KREMMLING      FAIR      23  18  80 CALM      30.33R
LEADVILLE      FAIR      33   2  26 N6        30.37S WCI  28
MONARCH PASS   FAIR      34   0  23 W28       30.56S WCI  20
SALIDA         NOT AVBL
SUNLIGHT       FAIR      36   0  21 SW10G20   30.46S
WILKERSON PASS FAIR      39  -4  16 W7        30.45S
$$

COZ069>075-181200-
...SAN LUIS VALLEY/SANGRE DE CRISTO MOUNTAINS...

CITY           SKY/WX    TMP DP  RH WIND       PRES   REMARKS
ALAMOSA        FAIR      26  18  71 CALM      30.30R
DEL NORTE      FAIR      38  13  37 W13       30.31F
LA VETA PASS   FAIR      39  10  30 MISG      30.47R
SAGUACHE       FAIR      36   9  32 N12       30.31S
$$

COZ035-036-038>040-181200-
...NORTHERN COLORADO FRONT RANGE...

CITY           SKY/WX    TMP DP  RH WIND       PRES   REMARKS
DENVER INTL AP MOCLDY    55  17  22 SW10      30.07R
DMNS CITY PARK   N/A     53  17  23 SE7       30.07R
AURORA         PTCLDY    53  18  25 S6        30.09R
FRONT RANGE AP FAIR      55  19  24 SW8       30.08R
ERIE MUNI ARPT FAIR      53  19  26 CALM      30.10R
BOULDER MUN AP FAIR      61  14  16 W9        30.06R
CENTENNIAL     FAIR      58  12  16 SW13      30.09S
BROOMFIELD     FAIR      64   7  10 W5        30.09R
FORT COLLINS   FAIR      46  33  60 NE6G16    30.05R
LONGMONT       FAIR      60  17  18 NW8       30.06R
$$

COZ041-046-047-076>085-087-088-181200-
...PIKES PEAK/PALMER DIVIDE AND SOUTHERN FOOTHILLS...

CITY           SKY/WX    TMP DP  RH WIND       PRES   REMARKS
COLO. SPRINGS  MOCLDY    48  25  40 N6        30.14R
A. F. ACADEMY  MOCLDY    53  10  18 NE10      30.13F
SCHRIEVER AFB  MOCLDY    49  22  34 NW3       30.13S
CHEYENNE MTN   MOCLDY    57  11  16 W7        30.11S
ELLICOTT       FAIR     N/A N/A N/A NE3       30.11F
FALCON         FAIR      50  12  22 NW12      30.17R
FORT CARSON    FAIR      44  21  39 NW8       30.10S
LIMON          FAIR      34  28  79 N9        30.08S WCI  27
MONUMENT HILL  NOT AVBL
CANON CITY     CLEAR     57  14  18 W14       30.10R
WALSENBURG     NOT AVBL
TRINIDAD       FAIR      39  24  55 W10       30.13R
$$

COZ042>045-048>051-090-091-181200-
...NORTHEAST COLORADO...

CITY           SKY/WX    TMP DP  RH WIND       PRES   REMARKS
GREELEY ARPT   FAIR      39  34  82 CALM      30.04S
AKRON          FAIR      49  24  37 W18       30.02R
BURLINGTON     FAIR      48  32  53 W9        30.01S
WRAY           FAIR      46  30  53 W8        29.96S
YUMA           NOT AVBL
STERLING       FAIR      37  30  75 SW5       30.00R
HOLYOKE        FAIR      41  32  70 W9        29.96S
FORT MORGAN    FAIR      47  24  39 W8        30.03R
$$

COZ086-089-092>099-181200-
...SOUTHEAST COLORADO...

CITY           SKY/WX    TMP DP  RH WIND       PRES   REMARKS
PUEBLO         FAIR      41  27  57 W6        30.06F
LA JUNTA       FAIR      42  29  59 SW8       30.04S
LAMAR          FAIR      35  30  82 SW8       30.01S WCI  29
SPRINGFIELD      N/A     40  32  73 W8        30.03S
$$




USA.gov is the U.S. government's official web portal to all federal, state and local government web resources and services.